Vorticity
nan nan nan nan nan nan nan nan nan nan nan nan nan nan nan nan nan nan nan nan nan nan nan nan nan nan nan nan nan nan nan nan nan nan nan nan nan nan nan nan nan nan nan nan nan nan nan nan nan
nan 11 11 10 8 5 11 10 7 13 7 -3 -2 -1 -5 -3 5 9 8 6 6 6 4 4 6 7 9 8 7 7 6 6 5 5 5 5 5 5 5 5 6 6 5 5 6 6 6 4 nan
nan 10 9 9 4 2 12 22 2 -0 9 1 -2 -2 2 -5 -2 -1 -3 7 7 6 5 5 6 7 6 8 8 7 6 6 6 6 5 5 6 5 4 5 6 6 5 6 6 6 5 5 nan
nan 12 6 4 5 10 5 8 6 10 4 9 6 2 7 3 3 1 10 12 6 4 4 6 6 7 7 7 8 8 7 6 6 6 5 4 5 5 6 5 6 7 7 6 6 5 5 5 nan
nan 6 6 7 10 9 7 6 9 13 12 13 5 4 2 3 9 12 20 12 10 4 4 5 5 6 7 6 6 7 7 7 6 5 6 6 5 5 4 5 7 7 8 7 6 5 4 4 nan
nan 5 5 9 14 0 1 13 18 2 9 8 9 8 4 8 10 13 7 5 6 11 7 3 4 5 5 7 7 7 6 6 6 6 6 5 6 5 5 5 5 6 7 6 6 6 6 5 nan
nan 8 0 7 13 3 0 7 6 5 5 9 -2 2 8 8 6 9 5 5 5 5 5 10 10 4 4 3 4 6 7 7 5 5 5 5 5 4 4 5 5 5 4 5 6 7 6 5 nan
nan 7 8 3 7 13 2 5 11 11 7 6 15 19 10 10 10 5 3 4 5 5 6 7 7 10 8 4 4 4 3 3 4 5 5 6 6 8 5 4 7 5 5 6 6 6 5 4 nan
nan 8 13 11 13 17 8 2 7 11 11 10 20 18 18 14 5 5 5 5 4 5 6 6 7 5 11 12 5 4 5 4 4 5 7 4 7 10 10 9 9 5 4 4 6 7 6 6 nan
nan 5 15 5 10 10 10 7 7 7 4 4 4 4 12 12 7 7 6 6 6 7 7 7 7 7 9 9 10 10 8 5 6 8 8 5 6 7 12 14 7 6 5 7 7 7 6 5 nan
nan 1 11 1 11 19 11 4 4 5 5 6 8 5 6 10 9 6 5 6 7 7 6 7 8 8 9 11 8 9 7 9 12 8 3 6 9 8 7 9 6 9 8 7 9 7 9 7 nan
nan 20 9 12 12 7 6 6 7 10 5 8 10 8 7 6 6 6 7 7 6 5 7 6 8 8 9 10 8 8 8 10 10 9 12 13 9 9 7 5 10 9 8 7 7 9 9 7 nan
nan 13 10 16 12 2 2 5 5 3 6 6 6 10 8 5 6 6 7 6 6 6 6 6 8 9 9 9 9 8 7 9 10 8 11 14 10 10 11 11 8 6 6 9 10 9 7 7 nan
nan 9 5 3 6 7 8 2 2 7 8 6 6 4 5 7 7 7 5 7 7 6 7 8 6 8 9 6 12 9 8 8 8 7 6 9 11 8 10 9 9 10 10 8 6 9 10 8 nan
nan 2 2 6 5 3 -5 4 11 8 5 4 4 5 7 6 6 7 7 7 7 7 7 9 7 8 7 8 10 8 8 8 7 6 6 8 10 10 10 9 9 10 8 9 13 11 8 9 nan
nan 3 1 6 3 -5 -3 12 6 6 5 4 3 3 3 5 6 5 8 7 8 8 7 8 8 8 9 13 8 7 8 8 7 7 6 6 7 10 11 9 8 8 10 11 12 11 10 9 nan
nan -1 8 5 3 1 7 15 7 4 7 6 5 4 4 3 3 6 9 7 7 7 6 7 8 9 11 12 11 9 7 6 6 7 7 7 6 9 9 8 8 10 10 9 9 10 12 12 nan
nan 4 11 7 11 3 6 5 10 7 5 5 7 6 6 6 6 7 4 5 6 8 9 8 7 10 11 10 9 7 8 8 9 7 7 8 8 7 9 9 9 9 9 8 8 9 10 10 nan
nan 9 12 13 9 6 13 6 8 6 4 5 4 4 6 6 6 8 8 7 6 5 5 5 8 11 10 10 9 9 8 7 8 5 8 8 8 8 10 9 9 10 8 8 9 10 9 9 nan
nan 6 6 16 14 4 9 9 8 6 6 9 7 6 5 4 3 4 5 6 8 8 7 8 7 9 11 10 9 10 7 8 7 8 5 5 8 8 8 9 8 9 8 7 7 12 13 8 nan
nan 13 13 4 2 12 7 7 8 8 5 6 8 8 8 6 6 6 6 7 6 6 7 7 8 6 9 9 11 10 10 9 8 7 6 7 6 8 9 9 9 8 9 7 7 6 10 11 nan
nan 21 10 9 3 10 3 4 13 8 5 3 5 6 9 8 6 7 8 6 7 7 7 7 7 8 8 10 10 11 12 7 9 8 9 7 5 8 7 8 9 10 8 7 9 10 9 7 nan
nan 18 6 4 7 11 2 3 15 11 6 6 6 7 5 6 7 6 5 6 7 8 7 6 7 8 7 9 10 9 8 10 9 8 8 8 6 4 7 11 10 9 8 8 9 9 9 10 nan
nan 12 12 3 5 10 9 8 12 16 10 10 8 8 6 7 5 6 5 6 6 7 8 8 7 8 8 8 9 8 9 9 9 9 8 8 7 4 6 9 9 8 9 8 9 11 7 9 nan
nan -1 3 7 8 11 9 7 12 15 18 9 11 7 7 6 7 6 6 5 5 7 9 9 7 8 8 8 8 8 9 8 8 9 9 9 9 7 7 9 9 9 8 7 9 10 8 8 nan
nan -1 2 11 8 11 11 10 12 19 20 10 10 7 8 5 7 7 8 6 6 7 8 7 8 8 8 7 7 7 8 10 7 9 9 9 9 7 7 8 8 9 8 8 10 10 8 8 nan
nan 6 -2 2 13 14 13 8 11 15 12 15 10 7 6 6 6 7 7 7 7 7 6 7 9 6 7 9 8 8 8 9 8 8 9 9 7 8 8 8 9 9 8 8 10 9 8 8 nan
nan 10 5 6 11 12 15 6 7 11 7 11 8 7 7 7 7 8 6 6 8 7 8 7 7 8 7 7 7 8 8 9 9 8 8 9 8 8 8 9 9 9 9 8 10 9 8 9 nan
nan 7 8 9 5 9 12 8 19 21 10 10 7 8 8 8 7 8 7 7 8 7 7 7 8 8 7 8 9 8 8 8 9 9 8 8 8 8 8 9 9 9 9 10 10 8 7 9 nan
nan nan nan nan nan nan nan nan nan nan nan nan nan nan nan nan nan nan nan nan nan nan nan nan nan nan nan nan nan nan nan nan nan nan nan nan nan nan nan nan nan nan nan nan nan nan nan nan nan
CAPE
0 0 0 0 0 0 0 0 0 0 595 704 613 543 504 595 802 976 546 287 264 173 895 1284 1421 1803 2017 1963 1942 2027 2126 2051 2006 1924 1894 2109 2105 2130 2132 2104 2057 1978 1586 1681 1325 1164 968 888 1315
0 0 0 0 0 0 0 0 488 286 515 881 857 989 918 797 485 458 297 255 11 81 907 1133 1564 1800 1987 1852 1821 1796 1998 1959 2055 1910 1886 2060 2003 1982 1997 2021 1940 1865 1576 1291 1206 1068 948 1131 1240
0 0 0 0 0 0 6 15 522 370 631 1298 799 36 55 0 11 371 442 136 39 719 539 1045 1351 1557 1788 1877 1727 1680 1711 1672 1613 1565 1675 1846 1850 1689 1620 1741 1754 1675 1450 1086 1060 1028 1070 1128 984
0 0 0 0 0 0 31 68 112 416 1128 944 429 7 0 0 0 1 374 193 336 123 282 748 1119 1434 1643 1722 1730 1570 1470 1233 1451 1617 1809 1756 1625 1509 1433 1457 1547 1439 1276 1165 1055 1088 1026 819 746
0 0 0 0 0 17 25 130 130 899 915 366 361 31 0 0 0 502 741 651 182 231 55 397 792 1167 1384 1428 1379 1339 1241 1265 1387 1562 1867 1777 1513 1205 1142 1246 1206 1367 1280 1213 1024 1012 810 615 484
0 0 0 0 37 30 209 563 995 889 605 382 265 0 0 0 103 737 902 909 920 616 237 78 617 809 947 1063 1080 1027 1116 1284 1403 1527 1690 1652 1423 1120 1010 1075 1096 1061 1266 1150 1046 786 670 538 371
0 0 0 0 112 144 282 263 400 128 0 531 565 23 0 0 267 546 656 707 678 698 910 1107 663 361 583 600 742 894 977 1067 1205 1296 1379 1326 1115 982 967 922 959 946 778 716 730 588 491 441 346
0 0 0 0 0 92 30 93 31 0 0 0 0 14 0 0 305 395 443 345 348 439 481 690 1029 1332 649 492 568 697 793 853 885 1003 1148 1061 967 974 1000 997 918 892 720 542 341 377 263 324 277
0 0 0 1 0 7 8 15 0 0 0 0 0 0 34 105 435 340 283 206 111 104 262 364 469 729 963 1205 557 524 661 701 665 605 755 591 729 1132 1033 694 678 887 625 389 232 162 160 110 105
0 0 0 1 24 18 10 0 0 0 0 0 0 0 0 138 143 65 5 0 0 0 0 12 131 371 494 619 1320 1169 595 513 657 584 871 925 802 1062 509 905 574 701 551 429 209 108 62 39 0
0 0 0 0 0 35 2 16 0 0 0 0 0 0 0 0 0 0 0 0 0 0 0 0 0 66 279 575 572 1503 1487 1136 1379 1363 1577 1298 1482 1410 968 838 581 592 401 319 148 49 6 0 0
0 0 0 0 0 0 0 0 0 0 0 0 0 0 0 0 0 0 0 0 0 0 0 0 0 0 90 346 638 880 1574 1339 1242 920 1046 1227 1150 1374 1228 803 780 917 710 625 605 200 104 15 0
0 1 0 0 0 0 0 0 0 0 0 0 0 0 0 0 0 0 0 0 0 0 0 0 0 0 0 82 270 756 607 195 409 402 96 210 589 833 1136 1173 1137 1050 876 642 489 232 56 0 11
0 0 0 0 0 0 0 0 0 0 0 0 0 0 0 0 0 0 0 0 0 0 0 0 0 0 0 16 296 42 8 0 2 3 2 2 2 1 120 684 870 938 912 900 642 617 494 387 232
0 0 0 0 0 0 0 0 0 0 0 0 0 0 0 0 0 0 0 0 0 0 0 0 0 0 0 0 4 0 0 0 0 2 0 1 1 3 4 3 43 62 569 890 862 936 571 628 319
0 0 0 0 0 0 0 0 0 0 0 0 0 0 0 0 0 0 0 0 0 0 0 0 0 0 0 0 15 0 2 0 0 0 0 0 0 3 5 5 5 2 4 282 458 757 749 738 652
0 0 0 0 0 0 0 0 0 0 0 0 0 0 0 0 0 0 0 0 0 0 0 0 0 0 0 0 16 16 11 0 1 2 4 6 3 1 4 5 5 4 5 5 3 2 116 526 551
0 0 1 0 0 0 0 0 0 0 0 0 0 0 0 0 0 0 0 0 0 0 0 0 0 0 0 0 0 0 0 9 9 0 2 2 0 5 2 1 4 2 4 5 3 2 1 2 320
0 0 5 0 0 0 0 0 0 0 0 0 0 0 0 0 0 0 0 0 0 0 0 0 0 0 0 0 0 0 0 0 0 1 0 0 0 0 4 1 3 2 6 3 4 4 1 0 1
3 5 2 0 0 0 0 0 0 0 0 0 0 0 0 0 0 0 0 0 0 0 0 0 0 0 0 0 0 0 0 0 0 0 1 0 0 0 0 2 4 0 2 1 2 0 0 5 7
0 26 0 0 0 0 0 0 0 0 0 0 0 0 0 0 0 0 0 0 0 0 0 0 0 0 0 0 0 0 0 0 0 0 0 0 0 0 0 0 1 0 0 0 2 11 1 4 0
0 7 5 0 0 0 0 0 0 0 0 0 0 0 0 0 0 0 0 0 0 0 0 0 0 0 0 0 0 0 0 0 0 0 0 0 0 0 0 0 0 0 0 0 0 0 2 3 3
5 1 0 0 0 12 0 1 2 0 0 0 0 0 0 0 0 0 0 0 0 0 0 0 0 0 0 0 0 0 0 0 0 0 0 0 0 0 0 0 0 0 0 0 0 0 0 0 4
0 5 9 0 2 53 9 0 43 0 0 0 0 0 0 0 0 0 0 0 0 0 0 0 0 0 0 0 0 0 0 0 0 0 0 0 0 0 0 0 0 0 0 0 0 0 0 0 0
0 0 3 10 39 26 5 14 27 3 0 0 0 0 0 0 0 0 0 0 0 0 0 0 0 0 0 0 0 0 0 0 0 0 0 0 0 0 0 0 0 0 0 0 0 0 0 0 0
0 0 2 0 0 0 0 7 58 0 0 0 0 0 0 0 0 0 0 0 0 0 0 0 0 0 0 0 0 0 0 0 0 0 0 0 0 0 0 0 0 0 0 0 0 0 0 0 0
0 0 0 2 9 15 12 0 0 0 0 0 0 0 0 0 0 0 0 0 0 0 0 0 0 0 0 0 0 0 0 0 0 0 0 0 0 0 0 0 0 0 0 0 0 0 0 0 0
0 0 1 17 123 0 11 1 34 0 0 0 0 0 0 0 0 0 0 0 0 0 0 0 0 0 0 0 0 0 0 0 0 0 0 0 0 0 0 0 0 0 0 0 0 0 0 0 0
0 0 15 3 26 0 12 70 6 0 0 0 0 0 0 0 0 0 0 0 0 0 0 0 0 0 0 0 0 0 0 0 0 0 0 0 0 0 0 0 0 0 0 0 0 0 0 0 0
0 0 0 71 0 239 269 319 0 0 0 0 0 0 0 0 0 0 0 0 0 0 0 0 0 0 0 0 0 0 0 0 0 0 0 0 0 0 0 0 0 0 0 0 0 0 0 0 0